• In Moldova, Republic
  • List of Countries
  • For 7 days
  • Water Temperature
  • Satellite Maps
  • Weather Map
  • Weather Widgets
  • user-avatar
    Login

    Hourly Weather Batina

    Today, 26 February, Sunday

    Time Temperature Precipitation Wind Pressure Humidity
    00:00 +2°C° 0 mm 3 mps 669 mmHg 83%
    01:00 +2°C° 0 mm 3 mps 669 mmHg 83%
    02:00 +3°C° 0 mm 3 mps 670 mmHg 82%
    03:00 +3°C° 0 mm 3 mps 670 mmHg 82%
    04:00 +3°C° 0.1 mm 3 mps 670 mmHg 83%
    05:00 +3°C° 0.1 mm 3 mps 670 mmHg 84%
    06:00 +3°C° 0.1 mm 3 mps 670 mmHg 85%
    07:00 +4°C° 0.1 mm 3 mps 670 mmHg 81%
    08:00 +5°C° 0.1 mm 4 mps 671 mmHg 77%
    09:00 +6°C° 0.1 mm 4 mps 671 mmHg 72%
    10:00 +7°C° 0.1 mm 4 mps 672 mmHg 68%
    11:00 +7°C° 0.1 mm 5 mps 672 mmHg 64%
    12:00 +8°C° 0.1 mm 5 mps 672 mmHg 60%
    13:00 +10°C° 0 mm 4 mps 672 mmHg 58%
    14:00 +10°C° 0 mm 4 mps 672 mmHg 57%
    15:00 +10°C° 0 mm 4 mps 671 mmHg 56%
    16:00 +9°C° 0 mm 3 mps 671 mmHg 63%
    17:00 +7°C° 0 mm 2 mps 671 mmHg 70%
    18:00 +6°C° 0 mm 2 mps 671 mmHg 77%
    19:00 +6°C° 0 mm 1 mps 671 mmHg 80%
    20:00 +5°C° 0 mm 1 mps 671 mmHg 83%
    21:00 +5°C° 0 mm 1 mps 671 mmHg 86%
    22:00 +4°C° 0 mm 1 mps 671 mmHg 86%
    23:00 +4°C° 0 mm 1 mps 671 mmHg 86%

    Tomorrow, 27 February, Monday

    Time Temperature Precipitation Wind Pressure Humidity
    00:00 +4°C° 0 mm 1 mps 671 mmHg 86%
    01:00 +3°C° 0 mm 1 mps 670 mmHg 85%
    02:00 +3°C° 0 mm 1 mps 670 mmHg 84%
    03:00 +3°C° 0 mm 1 mps 670 mmHg 83%
    04:00 +3°C° 0 mm 1 mps 670 mmHg 83%
    05:00 +3°C° 0 mm 1 mps 669 mmHg 83%
    06:00 +3°C° 0 mm 1 mps 669 mmHg 83%
    07:00 +6°C° 0 mm 1 mps 670 mmHg 72%
    08:00 +7°C° 0 mm 2 mps 671 mmHg 61%
    09:00 +10°C° 0 mm 2 mps 672 mmHg 51%
    10:00 +12°C° 0 mm 2 mps 672 mmHg 45%
    11:00 +14°C° 0 mm 2 mps 672 mmHg 39%
    12:00 +15°C° 0 mm 2 mps 672 mmHg 33%
    13:00 +15°C° 0 mm 2 mps 672 mmHg 32%
    14:00 +16°C° 0 mm 2 mps 671 mmHg 31%
    15:00 +16°C° 0 mm 2 mps 671 mmHg 30%
    16:00 +14°C° 0 mm 2 mps 670 mmHg 38%
    17:00 +10°C° 0 mm 2 mps 670 mmHg 45%
    18:00 +9°C° 0 mm 1 mps 669 mmHg 53%
    19:00 +8°C° 0 mm 1 mps 669 mmHg 57%
    20:00 +7°C° 0 mm 1 mps 669 mmHg 62%
    21:00 +6°C° 0 mm 0 mps 669 mmHg 66%
    22:00 +5°C° 0 mm 0 mps 669 mmHg 66%
    23:00 +5°C° 0 mm 0 mps 669 mmHg 67%

    Day after tomorrow, 28 February, Tuesday

    Time Temperature Precipitation Wind Pressure Humidity
    00:00 +5°C° 0 mm 0 mps 669 mmHg 67%
    01:00 +6°C° 0 mm 1 mps 668 mmHg 67%
    02:00 +5°C° 0 mm 1 mps 668 mmHg 67%
    03:00 +5°C° 0 mm 1 mps 668 mmHg 67%
    04:00 +5°C° 0 mm 1 mps 668 mmHg 67%
    05:00 +5°C° 0 mm 1 mps 668 mmHg 66%
    06:00 +5°C° 0 mm 1 mps 668 mmHg 66%
    07:00 +7°C° 0 mm 2 mps 670 mmHg 56%
    08:00 +10°C° 0 mm 2 mps 671 mmHg 47%
    09:00 +13°C° 0 mm 2 mps 672 mmHg 38%
    10:00 +15°C° 0 mm 2 mps 672 mmHg 34%
    11:00 +16°C° 0 mm 3 mps 672 mmHg 31%
    12:00 +17°C° 0 mm 3 mps 672 mmHg 27%
    13:00 +17°C° 0 mm 3 mps 672 mmHg 27%
    14:00 +17°C° 0 mm 3 mps 671 mmHg 26%
    15:00 +17°C° 0 mm 3 mps 671 mmHg 25%
    16:00 +14°C° 0 mm 3 mps 671 mmHg 33%
    17:00 +13°C° 0 mm 2 mps 670 mmHg 41%
    18:00 +9°C° 0 mm 2 mps 670 mmHg 48%
    19:00 +9°C° 0 mm 1 mps 670 mmHg 52%
    20:00 +9°C° 0 mm 1 mps 670 mmHg 56%
    21:00 +8°C° 0 mm 1 mps 670 mmHg 60%
    22:00 +7°C° 0 mm 1 mps 670 mmHg 62%
    23:00 +7°C° 0 mm 1 mps 670 mmHg 64%

    1 March, Wednesday

    Time Temperature Precipitation Wind Pressure Humidity
    00:00 +5°C° 0 mm 0 mps 670 mmHg 66%
    01:00 +5°C° 0 mm 0 mps 670 mmHg 69%
    02:00 +5°C° 0 mm 0 mps 670 mmHg 72%
    03:00 +5°C° 0 mm 1 mps 670 mmHg 74%
    04:00 +5°C° 0 mm 1 mps 670 mmHg 76%
    05:00 +5°C° 0 mm 1 mps 670 mmHg 77%
    06:00 +4°C° 0 mm 1 mps 670 mmHg 78%
    07:00 +7°C° 0 mm 1 mps 672 mmHg 68%
    08:00 +10°C° 0 mm 1 mps 673 mmHg 58%
    09:00 +13°C° 0 mm 1 mps 674 mmHg 48%
    10:00 +15°C° 0 mm 1 mps 674 mmHg 41%
    11:00 +16°C° 0 mm 1 mps 675 mmHg 34%
    12:00 +19°C° 0 mm 1 mps 675 mmHg 28%
    13:00 +19°C° 0 mm 1 mps 675 mmHg 26%
    14:00 +19°C° 0 mm 1 mps 674 mmHg 25%
    15:00 +19°C° 0 mm 1 mps 674 mmHg 23%
    16:00 +16°C° 0 mm 1 mps 674 mmHg 30%
    17:00 +14°C° 0 mm 1 mps 673 mmHg 37%
    18:00 +11°C° 0 mm 1 mps 673 mmHg 44%
    19:00 +10°C° 0 mm 1 mps 673 mmHg 48%
    20:00 +10°C° 0 mm 1 mps 673 mmHg 52%
    21:00 +9°C° 0 mm 1 mps 673 mmHg 56%
    22:00 +8°C° 0 mm 1 mps 673 mmHg 56%
    23:00 +8°C° 0 mm 1 mps 673 mmHg 55%

    2 March, Thursday

    Time Temperature Precipitation Wind Pressure Humidity
    00:00 +8°C° 0 mm 1 mps 673 mmHg 55%
    01:00 +7°C° 0 mm 1 mps 672 mmHg 55%
    02:00 +7°C° 0 mm 1 mps 672 mmHg 54%
    03:00 +7°C° 0 mm 1 mps 672 mmHg 53%
    04:00 +7°C° 0 mm 1 mps 672 mmHg 53%
    05:00 +6°C° 0 mm 1 mps 672 mmHg 53%
    06:00 +5°C° 0 mm 2 mps 672 mmHg 53%
    07:00 +8°C° 0 mm 2 mps 673 mmHg 46%
    08:00 +12°C° 0 mm 2 mps 674 mmHg 39%
    09:00 +15°C° 0 mm 2 mps 675 mmHg 32%
    10:00 +16°C° 0 mm 2 mps 675 mmHg 29%
    11:00 +17°C° 0 mm 3 mps 675 mmHg 27%
    12:00 +19°C° 0 mm 3 mps 675 mmHg 24%
    13:00 +19°C° 0 mm 3 mps 674 mmHg 24%
    14:00 +19°C° 0 mm 3 mps 674 mmHg 24%
    15:00 +19°C° 0 mm 3 mps 673 mmHg 24%
    16:00 +17°C° 0 mm 3 mps 673 mmHg 31%
    17:00 +14°C° 0 mm 2 mps 672 mmHg 37%
    18:00 +12°C° 0 mm 2 mps 672 mmHg 44%
    19:00 +10°C° 0 mm 2 mps 672 mmHg 47%
    20:00 +10°C° 0 mm 2 mps 672 mmHg 50%
    21:00 +9°C° 0 mm 2 mps 672 mmHg 53%
    22:00 +9°C° 0 mm 2 mps 671 mmHg 53%
    23:00 +8°C° 0 mm 2 mps 671 mmHg 52%

    3 March, Friday

    Time Temperature Precipitation Wind Pressure Humidity
    00:00 +8°C° 0 mm 2 mps 671 mmHg 52%
    01:00 +8°C° 0 mm 2 mps 670 mmHg 52%
    02:00 +8°C° 0 mm 2 mps 670 mmHg 52%
    03:00 +8°C° 0 mm 2 mps 670 mmHg 52%
    04:00 +8°C° 0 mm 2 mps 670 mmHg 52%
    05:00 +7°C° 0 mm 2 mps 670 mmHg 52%
    06:00 +7°C° 0 mm 2 mps 670 mmHg 51%
    07:00 +10°C° 0 mm 3 mps 670 mmHg 44%
    08:00 +13°C° 0 mm 3 mps 671 mmHg 37%
    09:00 +15°C° 0 mm 4 mps 672 mmHg 30%
    10:00 +18°C° 0 mm 4 mps 672 mmHg 28%
    11:00 +19°C° 0 mm 5 mps 672 mmHg 26%
    12:00 +20°C° 0 mm 5 mps 672 mmHg 24%
    13:00 +20°C° 0 mm 5 mps 671 mmHg 24%
    14:00 +20°C° 0 mm 5 mps 671 mmHg 24%
    15:00 +19°C° 0 mm 5 mps 671 mmHg 24%
    16:00 +17°C° 0 mm 4 mps 670 mmHg 29%
    17:00 +14°C° 0 mm 3 mps 670 mmHg 33%
    18:00 +12°C° 0 mm 3 mps 669 mmHg 38%
    19:00 +13°C° 0 mm 2 mps 669 mmHg 39%
    20:00 +12°C° 0 mm 2 mps 669 mmHg 40%
    21:00 +10°C° 0 mm 2 mps 669 mmHg 42%
    22:00 +10°C° 0 mm 2 mps 669 mmHg 42%
    23:00 +10°C° 0 mm 3 mps 669 mmHg 41%
    Show more